STARLINK-11180, 60185

Orbit data source: Space-Track

STARLINK-11180, 60185 is a payload satellite owned by SpaceX/Seattle (US) in LEO that was launched on Wed, 03 Jul 2024 UTC via an FALCON 9 launch vehicle from the Air Force Eastern Test Range (AFETR). Payload-class satellites include a variety of spacecraft equipped with specific instruments for various scientific and technological missions. These include communications satellites like Starlink; space stations such as the ISS; scientific satellites like the Hubble; Earth observation satellites from companies like Planet Labs, Umbra, and HawkEye 360; GPS; miniature CubeSats for education and research; and military/defense satellites.

Loading next visibility...
Identifier
60185, 2024-124C
Orbit
LEO
Last TLE update
19 hours ago
Origin
Manufacturer
SpaceX/Seattle
Mission
Operational Commercial Communications
Bus & Motor
STARLINK V2M, Unknown motor
Mass
730 kg wet, ~700 kg dry
Launch date (UTC)
2024-07-03 (10 months ago)
Launch vehicle
FALCON 9
Launch site
Air Force Eastern Test Range (AFETR)
Object type
Payload
Rocket body
Debris
Shape & HBR
Box + 2 Pan, 29 m
Radar Cross Section
36.964 m², Large (>1 m²)

Expand to show TLE details & history

TLE from 19 hours ago
0 STARLINK-11180
1 60185U 24124C   25128.50289394  .00002169  00000-0  22751-4 0  9990
2 60185  53.1598 225.5271 0000937  69.0815 291.0303 15.69713299 48603
Epoch: 2025-05-08T12:04Z
Definitive object data (Epoch: 2025-05-08T12:04:10.036Z)
Latitude
-0.00003°
Longitude
177.9128°
Altitude
360.406 km
Speed
7.694 km/s
True Right ascension
15h 02m 06s
True Declination
0° 00' 00"
Sunlit
Object was in full shadow at TLE epoch
Visualization TLE readout
Latitude
43.13698°
Longitude
-141.63491°
Altitude
363.349 km
Speed
7.697 km/s
Apparent Right ascension
22h 14m 23s
Apparent Declination
7° 59' 27"
Sunlit
Object is in full shadow
Visualization observer readout
Local Sidereal Time
14:48:05
Azimuth
69.721° E
Elevation
-10.957°
Doppler factor
1
Orbital elements
Apogee altitude
360.609 km
Perigee altitude
359.347 km
Semi-major axis
6,738.115 km
Eccentricity
0.0000937
Inclination
53.1598°
RAAN
225.5271°
Arg. of periapsis
69.0815°
True anomaly
291.02028°
Mean anomaly
291.0303°
Eccentric anomaly
291.02529°
Mean motion
3.92406 °/min
BSTAR
0.000022751
Orbital period
91.74 mins
Loading maneuver chart data...
Loading SW <> Apogee altitude chart data...
Loading historical data...
Loading historical data...
Loading historical data...
Loading historical data...
Loading historical data...
Loading historical data...
Loading historical data...

STARLINK-11180 Visibility forecast

Observer location: undefined°, undefined°

Span
Click to sort rows by Start time (UTC) header in descending order
Start Az.
Max El. time (UTC)
Max El. Az.
Max El.
End time (UTC)
End Az.
4 mins2025-05-09 09:41:13.402Z271.674° WNW2025-05-09 09:42:13.402Z307.614° NW31.05°2025-05-09 09:45:13.402Z35.832° NE
|